Location: El Escondido
(32.5691°N, 116.4250°W)
Time: 06:29:44
(UTC+00:00)

Cosmos 1470 Rocket - Pass Details

Date: 13 April 2024
Orbit: 601 x 629 km, 82.5° (Epoch: 28 May)

Event Time Altitude Azimuth Distance (km) Brightness Sun altitude
Rises 12:25:53 0° 348° (NNW) 2,888 7.1 -11.4°
Reaches altitude 10° 12:28:08 10° 344° (NNW) 1,984 6.2 -11.0°
Maximum altitude 12:32:25 54° 267° (W) 751 3.6 -10.1°
Drops below altitude 10° 12:36:43 10° 190° (S) 1,987 5.9 -9.2°
Sets 12:38:59 0° 185° (S) 2,893 6.8 -8.8°
